Terug naar catalogus

STARLINK-37413

ActiefCommunicatieSSO
NORAD 68789·PAYLOAD·🇺🇸 United States

Gelanceerd Apr 19, 2026 vanaf Vandenberg Space Force Base

Loading…

Volgende Passages (komende 24 uur)

TLE

VersSource: CelesTrak SupGP

Epoch: Sep 15, 2026, 04:06 UTC

1 68789C 26086Z   26258.17131944 -.00060618  00000+0 -18819-2 0  2582
2 68789  97.2844 293.7272 0001323  86.5883 203.5235 15.33467763    19

Volg STARLINK-37413 in realtime met AllMySat

Download on the App Store